Total_Precipitation_Accumulation
0.79 0.75 0.76 0.69 0.68 0.71 0.76 0.89 1.05 0.87 0.49 0.34 0.35 0.37 0.38 0.43 0.51 0.48 0.43 0.47 0.54 0.61 0.68 0.76 0.84 0.96 1.29 1.97 2.98 3.69 3.58 2.91 2.19 1.82 1.88 2.21 2.70 3.16
0.86 0.83 0.81 0.78 0.75 0.75 0.78 0.78 0.85 0.93 0.70 0.35 0.32 0.36 0.42 0.44 0.52 0.50 0.49 0.56 0.56 0.59 0.63 0.67 0.75 0.88 1.04 1.33 1.95 2.91 3.53 3.46 2.84 2.26 2.08 2.22 2.49 2.97
0.90 0.91 0.87 0.83 0.83 0.78 0.78 0.76 0.73 0.80 0.80 0.42 0.32 0.38 0.48 0.53 0.57 0.55 0.57 0.56 0.53 0.57 0.61 0.66 0.70 0.81 0.97 1.15 1.42 2.02 2.91 3.45 3.42 2.93 2.55 2.39 2.38 2.54
1.05 1.02 0.99 0.96 0.98 0.92 0.87 0.81 0.74 0.72 0.81 0.65 0.41 0.39 0.49 0.59 0.66 0.67 0.65 0.63 0.59 0.66 0.68 0.69 0.71 0.77 0.91 1.07 1.24 1.51 2.09 2.85 3.33 3.29 2.90 2.56 2.41 2.49
1.33 1.30 1.23 1.18 1.20 1.14 1.06 0.94 0.82 0.75 0.76 0.76 0.57 0.46 0.52 0.64 0.80 0.81 0.78 0.75 0.68 0.74 0.75 0.77 0.77 0.78 0.83 0.95 1.10 1.25 1.49 1.90 2.51 3.06 3.25 2.99 2.64 2.51
1.55 1.51 1.53 1.49 1.44 1.38 1.33 1.14 0.96 0.90 0.86 0.86 0.73 0.60 0.60 0.69 0.93 1.03 1.02 0.95 0.87 0.78 0.79 0.81 0.84 0.84 0.81 0.80 0.85 0.98 1.22 1.60 2.02 2.59 3.14 3.27 2.93 2.65
1.37 1.35 1.44 1.57 1.63 1.63 1.62 1.43 1.28 1.24 1.16 1.12 0.98 0.83 0.76 0.85 1.03 1.11 1.18 1.13 1.11 0.96 0.81 0.75 0.75 0.75 0.74 0.75 0.79 0.89 1.06 1.29 1.59 2.04 2.60 3.11 3.17 2.95
1.23 1.18 1.20 1.33 1.40 1.45 1.56 1.58 1.60 1.65 1.59 1.43 1.24 1.08 0.90 0.84 0.97 1.24 1.35 1.43 1.44 1.16 1.00 0.91 0.79 0.78 0.76 0.73 0.75 0.78 0.95 1.18 1.42 1.69 2.04 2.53 2.96 3.10
1.08 1.07 1.07 1.10 1.19 1.12 1.22 1.35 1.46 1.62 1.72 1.67 1.58 1.26 1.02 0.93 1.09 1.34 1.45 1.51 1.41 1.27 1.26 1.31 1.08 0.94 0.87 0.86 0.85 0.78 0.86 1.04 1.23 1.45 1.67 1.98 2.41 2.82
1.11 1.01 0.96 0.96 1.10 1.15 1.19 1.19 1.16 1.27 1.50 1.64 1.70 1.49 1.25 1.20 1.40 1.63 1.76 1.78 1.62 1.51 1.47 1.58 1.31 1.11 1.04 0.99 0.94 0.82 0.79 0.88 1.04 1.20 1.40 1.61 1.91 2.31
1.24 1.15 1.05 0.93 1.14 1.25 1.18 1.11 1.02 1.07 1.21 1.47 1.63 1.63 1.59 1.63 1.77 2.01 2.12 2.16 2.04 1.76 1.61 1.66 1.52 1.30 1.23 1.21 1.09 0.93 0.80 0.80 0.87 1.00 1.15 1.32 1.52 1.90
1.26 1.23 1.30 1.21 1.26 1.22 1.09 1.10 1.12 1.00 0.97 1.05 1.13 1.22 1.23 1.28 1.53 1.74 1.87 2.02 2.01 2.02 1.73 1.65 1.67 1.60 1.70 1.43 1.16 0.92 0.80 0.79 0.81 0.87 0.94 1.06 1.23 1.40
1.28 1.22 1.21 1.32 1.25 1.18 1.12 1.08 1.18 1.03 0.92 0.98 1.00 1.01 1.05 1.13 1.21 1.40 1.61 1.76 1.90 1.91 1.67 1.70 1.92 1.75 1.75 1.64 1.36 1.08 0.82 0.70 0.71 0.81 0.90 1.00 1.08 1.11
1.21 1.08 1.10 1.24 1.22 1.22 1.14 1.18 1.23 1.19 1.08 1.06 0.99 0.93 0.96 1.04 1.12 1.22 1.38 1.52 1.60 1.65 1.54 1.66 2.03 1.89 1.76 1.55 1.38 1.30 1.04 0.79 0.67 0.68 0.76 1.01 1.09 1.11
1.31 1.33 1.27 1.28 1.23 1.12 1.10 1.15 1.16 1.13 1.17 1.12 0.96 0.85 0.85 0.95 1.04 1.16 1.24 1.35 1.45 1.51 1.57 1.61 1.82 1.94 1.89 1.65 1.31 1.23 1.20 1.07 0.80 0.70 0.71 0.76 0.82 0.92
1.39 1.39 1.37 1.35 1.26 1.18 1.17 1.08 1.00 1.05 1.12 1.06 0.95 0.90 0.87 0.93 1.03 1.12 1.24 1.29 1.44 1.49 1.55 1.62 1.76 2.01 2.02 1.61 1.37 1.23 1.05 1.14 0.99 0.74 0.70 0.73 0.73 0.70
1.40 1.41 1.36 1.30 1.29 1.19 1.09 1.03 1.01 1.04 1.07 0.99 0.98 1.02 0.99 0.99 1.02 1.05 1.19 1.28 1.39 1.37 1.49 1.69 1.78 1.92 1.99 1.84 1.66 1.31 1.04 0.94 0.91 0.78 0.74 0.83 0.87 0.80
1.39 1.33 1.16 1.09 1.09 1.05 1.02 0.98 0.97 0.97 0.92 0.93 0.97 1.00 1.01 1.02 1.03 1.04 1.14 1.26 1.30 1.26 1.33 1.55 1.77 2.03 2.17 2.14 1.88 1.45 1.16 1.00 0.95 0.88 0.77 0.82 0.96 0.96
1.17 1.03 0.92 0.92 0.93 0.89 0.86 0.85 0.82 0.81 0.84 0.89 0.93 0.95 0.99 1.02 1.05 1.09 1.13 1.20 1.22 1.22 1.28 1.42 1.70 1.98 2.08 2.06 2.12 1.75 1.38 1.17 1.13 1.13 0.96 0.80 0.84 0.91
0.95 0.92 0.87 0.83 0.83 0.81 0.77 0.76 0.74 0.75 0.83 0.89 0.89 0.88 0.92 0.99 1.02 1.02 1.05 1.13 1.19 1.23 1.29 1.36 1.59 1.82 1.91 1.76 1.82 1.91 1.83 1.49 1.27 1.27 1.16 0.98 0.91 1.05
0.90 0.85 0.83 0.82 0.80 0.77 0.74 0.74 0.76 0.77 0.78 0.85 0.88 0.86 0.87 0.94 0.96 0.93 0.96 1.08 1.17 1.22 1.23 1.23 1.39 1.65 1.79 1.73 1.64 1.66 1.85 1.90 1.53 1.30 1.20 1.19 1.17 1.22
0.87 0.86 0.82 0.83 0.81 0.78 0.78 0.78 0.78 0.75 0.74 0.77 0.80 0.82 0.84 0.89 0.91 0.89 0.92 0.99 1.03 1.06 1.11 1.16 1.28 1.59 1.85 1.86 1.68 1.57 1.73 1.94 1.99 1.69 1.38 1.25 1.30 1.40
0.90 0.89 0.87 0.83 0.79 0.76 0.76 0.75 0.73 0.70 0.67 0.68 0.71 0.73 0.78 0.83 0.83 0.84 0.85 0.88 0.92 0.97 1.05 1.17 1.28 1.50 1.76 1.84 1.77 1.63 1.62 1.72 1.83 1.80 1.76 1.46 1.03 0.83